User: anonymous   Login
Location: Balaclava NSW 2575, Australia
(34.4510°S, 150.4953°E)
Time: 11:44:06
(UTC+10:00)
Language:

M-CUBED/EXP-1 PRIME - Orbit

View from above orbital plane
View from above orbital plane
View from above satellite
View from above satellite

Ground track
Ground track

The orbit data is extracted from the following two-line orbital elements,

1 37855U 11061F   21216.39843308  .00002115  00000-0  10803-3 0  9991
2 37855 101.7117 164.6705 0165731 288.0912  70.2310 15.07974875533401
Epoch (UTC): 04 August 2021 09:33:44
Eccentricity: 0.0165731
inclination: 101.7117°
perigee height: 428 km
apogee height: 657 km
right ascension of ascending node: 164.6705°
argument of perigee: 288.0912°
revolutions per day: 15.07974875
mean anomaly at epoch: 70.2310°
orbit number at epoch: 53340

The dashed part of the orbit path shows where the satellite is in the earth's shadow,  

DLR